Weather History for Sault Ste Marie, MI

Change the Weather History Date:

Monday, May 5, 2014

  Actual Average Record
Temperature  
Mean Temperature 40 °F 49 °F  
Max Temperature 50 °F 59 °F 83 °F (1930)
Min Temperature 30 °F 38 °F 23 °F (1954)
Degree Days  
Heating Degree Days 25 16  
Month to date heating degree days 120 86  
Since 1 July heating degree days 9284 8155  
Cooling Degree Days 0 0  
Month to date cooling degree days 0 0  
Year to date cooling degree days 0 0  
Moisture  
Dew Point 31 °F    
Average Humidity 73    
Maximum Humidity 96    
Minimum Humidity 49    
Precipitation  
Precipitation 0.00 in 0.07 in 1.50 in (1949)
Month to date precipitation 0.67 0.38  
Year to date precipitation 9.94 8.25  
Sea Level Pressure  
Sea Level Pressure 30.08 in    
Wind  
Wind Speed 4 mph (WNW)    
Max Wind Speed 12 mph    
Max Gust Speed 15 mph    
Visibility 10 miles    
Events      
T = Trace of Precipitation, MM = Missing Value Source: NWS Daily Summary

Daily Weather History Graph

Daily Weather History Graph

Search for Another Location

Airport:

Trip Planner

Search our weather history database for the weather conditions in past years. The results will help you decide how hot, cold, wet, or windy it might be!

Date:

Astronomy

May. 05, 2014 Rise Set
Actual Time 6:17 AM EDT 8:51 PM EDT
Civil Twilight 5:43 AM EDT 9:26 PM EDT
Nautical Twilight 5:00 AM EDT 10:09 PM EDT
Astronomical Twilight 4:11 AM EDT 10:58 PM EDT
Moon 11:37 AM EDT (5/5) 1:34 AM EDT (5/5)
Length of Visible Light 15h 43m
Length of Day
14h 34m
Waxing Crescent, 36% of the Moon is Illuminated
May 5
Waxing Crescent
May 6
First Quarter
May 14
Full
May 21
Last Quarter
May 28
New

Hourly Weather History & Observations

Time (EDT) Temp. Windchill Dew Point Humidity Pressure Visibility Wind Dir Wind Speed Gust Speed Precip Events Conditions
12:55 AM 33.1 °F 30.0 °F 30.0 °F 89% 30.08 in 10.0 mi SW 3.5 mph - N/A   Clear
1:55 AM 33.1 °F 28.7 °F 30.9 °F 92% 30.08 in 10.0 mi West 4.6 mph - N/A   Clear
2:55 AM 30.9 °F 27.5 °F 28.9 °F 92% 30.09 in 10.0 mi West 3.5 mph - N/A   Clear
3:55 AM 30.9 °F 27.5 °F 28.9 °F 92% 30.13 in 10.0 mi West 3.5 mph - N/A   Clear
4:55 AM 32.0 °F - 28.9 °F 88% 30.09 in 10.0 mi Calm Calm - N/A   Overcast
5:55 AM 34.0 °F 31.0 °F 30.9 °F 89% 30.09 in 10.0 mi North 3.5 mph - N/A   Overcast
6:55 AM 33.1 °F - 30.9 °F 92% 30.10 in 10.0 mi Calm Calm - N/A   Mostly Cloudy
7:55 AM 34.0 °F - 32.0 °F 92% 30.11 in 10.0 mi Calm Calm - N/A   Mostly Cloudy
8:55 AM 37.9 °F - 34.0 °F 86% 30.12 in 10.0 mi Calm Calm - N/A   Scattered Clouds
9:55 AM 39.9 °F - 35.1 °F 83% 30.13 in 10.0 mi Calm Calm - N/A   Overcast
10:55 AM 39.0 °F 35.7 °F 34.0 °F 82% 30.12 in 10.0 mi NW 4.6 mph - N/A   Overcast
11:55 AM 44.1 °F 42.5 °F 34.0 °F 68% 30.11 in 10.0 mi NNE 3.5 mph - N/A   Overcast
12:55 PM 44.1 °F - 35.1 °F 71% 30.10 in 10.0 mi Calm Calm - N/A   Overcast
2:55 PM 48.0 °F - 34.0 °F 58% 30.09 in 10.0 mi NW 3.5 mph - N/A   Overcast
3:55 PM 48.9 °F - 33.1 °F 54% 30.07 in 10.0 mi Calm Calm - N/A   Overcast
4:55 PM 48.9 °F - 34.0 °F 56% 30.05 in 10.0 mi NW 5.8 mph - N/A   Overcast
5:55 PM 48.0 °F - 33.1 °F 56% 30.04 in 10.0 mi NNW 8.1 mph - N/A   Overcast
6:55 PM 46.9 °F - 30.9 °F 54% 30.04 in 10.0 mi NW 9.2 mph - N/A   Mostly Cloudy
7:55 PM 45.0 °F 39.3 °F 26.1 °F 48% 30.04 in 10.0 mi NW 11.5 mph - N/A   Clear
8:55 PM 39.9 °F 33.4 °F 27.0 °F 60% 30.04 in 10.0 mi NW 10.4 mph - N/A   Clear
9:55 PM 39.0 °F 33.4 °F 27.0 °F 62% 30.06 in 10.0 mi WNW 8.1 mph - N/A   Clear
10:55 PM 37.9 °F 34.4 °F 27.0 °F 65% 30.07 in 10.0 mi West 4.6 mph - N/A   Clear
11:55 PM 36.0 °F 32.1 °F 28.0 °F 73% 30.07 in 10.0 mi WNW 4.6 mph - N/A   Clear